This is the latest recevied weather packets stored in our database for station/object N0NAI-13. If no packets are shown the sender has not sent any weather packets the latest 10 day(s).
| Time | Temp. | Humidity | Pressure | Rain* | Wind** | Luminosity | Snow |
|---|---|---|---|---|---|---|---|
| 1778040931 | 3.33° C | 66% | 1014.7 hPa | 0 mm | - | - | - |
| 1778040315 | 3.89° C | 64% | 1014.5 hPa | 0 mm | - | - | - |
| 1778039719 | 3.89° C | 65% | 1014.5 hPa | 0 mm | - | - | - |
| 1778039122 | 4.44° C | 65% | 1014.5 hPa | 0 mm | - | - | - |
| 1778038519 | 5° C | 63% | 1014.4 hPa | 0 mm | - | - | - |
| 1778037916 | 5° C | 62% | 1014.3 hPa | 0 mm | - | - | - |
| 1778037330 | 5° C | 61% | 1014.3 hPa | 0 mm | - | - | - |
| 1778036715 | 5.56° C | 61% | 1014.3 hPa | 0 mm | - | - | - |
| 1778036119 | 6.11° C | 61% | 1014.1 hPa | 0 mm | - | - | - |
| 1778035522 | 6.11° C | 60% | 1014 hPa | 0 mm | - | - | - |
| 1778034925 | 6.11° C | 61% | 1013.9 hPa | 0 mm | - | - | - |
| 1778034327 | 6.67° C | 60% | 1013.9 hPa | 0 mm | - | - | - |
| 1778033730 | 6.67° C | 58% | 1013.8 hPa | 0 mm | - | - | - |
| 1778033115 | 6.67° C | 57% | 1013.6 hPa | 0 mm | - | - | - |
| 1778032518 | 7.22° C | 55% | 1013.3 hPa | 0 mm | - | - | - |
| 1778031921 | 7.78° C | 53% | 1013.3 hPa | 0 mm | - | - | - |
| 1778031323 | 7.78° C | 51% | 1013.2 hPa | 0 mm | - | - | - |
| 1778030726 | 8.33° C | 49% | 1013.1 hPa | 0 mm | - | - | - |
| 1778030129 | 8.89° C | 47% | 1013.1 hPa | 0 mm | - | - | - |
| 1778029532 | 9.44° C | 46% | 1013 hPa | 0 mm | - | - | - |
| 1778028917 | 9.44° C | 45% | 1012.9 hPa | 0 mm | - | - | - |
| 1778028320 | 9.44° C | 44% | 1012.9 hPa | 0 mm | - | - | - |
| 1778027723 | 10° C | 43% | 1012.8 hPa | 0 mm | - | - | - |
| 1778027120 | 10.56° C | 41% | 1012.6 hPa | 0 mm | - | - | - |
| 1778026517 | 11.11° C | 41% | 1012.6 hPa | 0 mm | - | - | - |
* Rain latest hour (hover to see other rain measurements)
** Current wind speed in m/s (hover to see current wind gust speed)